Voltar ao catálogo

STARLINK-34886

AtivoComunicaçõesVLEO
NORAD 65683·PAYLOAD·🇺🇸 United States

Lançado Sep 21, 2025 de Cape Canaveral Space Force Station

Loading…

Próximas Passagens (próximas 24 horas)

TLE

AtualizadoSource: CelesTrak SupGP

Época: Sep 14, 2026, 23:04 UTC

1 65683C 25212H   26257.96159722 -.00052746  00000+0 -16958-2 0  2576
2 65683  53.1584 185.1503 0001326  90.3954 187.2362 15.31734200    17

Acompanhe STARLINK-34886 em tempo real com AllMySat

Download on the App Store